EW3511 Weather Reports


time (UTC)temp
C
wind
direction
speed
KPH
gust
KPH
rain 1hr
cm
rain 24hr
cm
rain mn
cm
humidity
%
barometer
mb
20260906141132 23 56 3.2 8.0 0.00 0.00 0.00 50 1025.1
20260906140133 23 80 3.2 9.7 0.00 0.00 0.00 50 1025.1
20260906135135 23 64 3.2 11.3 0.00 0.00 0.00 52 1025.1
20260906134137 23 62 4.8 12.9 0.00 0.00 0.00 52 1025.0
20260906133135 23 39 3.2 8.0 0.00 0.00 0.00 51 1025.2
20260906132138 23 72 1.6 4.8 0.00 0.00 0.00 51 1025.4
20260906131134 22 76 3.2 4.8 0.00 0.00 0.00 54 1025.3
20260906130137 22 4 4.8 11.3 0.00 0.00 0.00 53 1025.4
20260906125135 22 53 3.2 9.7 0.00 0.00 0.00 55 1025.5
20260906124134 22 30 1.6 8.0 0.00 0.00 0.00 52 1025.5
20260906123135 22 40 3.2 8.0 0.00 0.00 0.00 53 1025.7
20260906122157 22 60 3.2 8.0 0.00 0.00 0.00 55 1025.7
20260906121140 22 46 3.2 12.9 0.00 0.00 0.00 57 1025.8
20260906120141 22 65 3.2 9.7 0.00 0.00 0.00 57 1026.0
20260906115137 22 50 3.2 8.0 0.00 0.00 0.00 57 1026.0
20260906114138 22 56 3.2 9.7 0.00 0.00 0.00 58 1026.1
20260906113137 21 25 3.2 11.3 0.00 0.00 0.00 58 1026.2
20260906112139 21 80 4.8 11.3 0.00 0.00 0.00 59 1026.4
20260906111200 21 63 3.2 11.3 0.00 0.00 0.00 59 1026.3
20260906110139 21 77 3.2 9.7 0.00 0.00 0.00 59 1026.4
20260906105140 21 96 4.8 9.7 0.00 0.00 0.00 60 1026.4
20260906104139 21 77 3.2 8.0 0.00 0.03 0.00 61 1026.6
20260906103142 20 53 3.2 8.0 0.00 0.03 0.00 61 1026.7
20260906102159 20 54 1.6 8.0 0.00 0.03 0.00 63 1026.9
20260906101142 20 91 3.2 8.0 0.00 0.03 0.00 63 1026.9
20260906100138 20 81 3.2 9.7 0.00 0.03 0.00 65 1027.0
20260906095139 20 72 3.2 8.0 0.00 0.03 0.00 65 1027.0
20260906094141 19 76 4.8 11.3 0.00 0.08 0.00 66 1027.2
20260906093140 19 64 3.2 8.0 0.00 0.18 0.00 66 1027.3
20260906092201 20 76 1.6 3.2 0.00 0.25 0.00 64 1027.1
20260906091141 18 63 3.2 8.0 0.00 0.41 0.00 66 1027.2
20260906090141 18 41 3.2 9.7 0.00 0.41 0.00 67 1027.2
20260906085140 18 67 3.2 8.0 0.00 0.41 0.00 68 1027.2
20260906084142 18 48 3.2 8.0 0.00 0.41 0.00 69 1027.3
20260906083144 18 77 3.2 9.7 0.00 0.41 0.00 69 1027.2
20260906082141 18 56 1.6 8.0 0.00 0.41 0.00 69 1027.2
20260906081142 17 72 1.6 8.0 0.00 0.41 0.00 70 1027.2
20260906080112 17 57 3.2 8.0 0.00 0.41 0.00 71 1027.2
20260906075104 17 62 3.2 9.7 0.00 0.41 0.00 71 1027.0
20260906074107 16 78 3.2 8.0 0.00 0.41 0.00 71 1026.9
20260906073227 16 56 3.2 8.0 0.00 0.41 0.00 72 1026.9
20260906072105 16 71 1.6 9.7 0.00 0.41 0.00 72 1026.9
20260906071037 17 85 3.2 8.0 0.00 0.41 0.00 70 1026.9
20260906070037 16 64 1.6 8.0 0.00 0.41 0.00 73 1026.8
20260906065036 16 67 3.2 8.0 0.00 0.41 0.00 73 1026.8
20260906064037 16 73 1.6 4.8 0.00 0.41 0.00 72 1026.8
20260906063037 16 72 0.0 1.6 0.00 0.41 0.00 84 1027.0
20260906062117 15 84 0.0 1.6 0.00 0.43 0.00 87 1027.1
20260906061038 15 56 1.6 3.2 0.00 0.43 0.00 90 1026.8
20260906060038 13 79 0.0 1.6 0.00 0.46 0.00 97 1026.8
20260906055040 13 72 1.6 3.2 0.00 0.48 0.00 99 1026.6
20260906054040 12 41 1.6 3.2 0.00 0.48 0.00 99 1026.9
20260906053040 12 64 1.6 1.6 0.00 0.48 0.00 99 1026.8
20260906052040 12 64 1.6 3.2 0.00 0.48 0.00 99 1026.7
20260906051040 12 113 0.0 1.6 0.00 0.48 0.00 99 1026.7
20260906050100 12 74 1.6 3.2 0.00 0.51 0.00 99 1026.5
20260906045041 12 0.0 0.0 0.00 0.56 0.00 99 1026.4
20260906044041 12 0.0 0.0 0.00 0.56 0.00 99 1026.5
20260906043042 12 0.0 0.0 0.00 0.56 0.00 99 1026.5
20260906042042 12 0.0 0.0 0.00 0.56 0.00 99 1026.5
20260906041043 12 0.0 0.0 0.00 0.56 0.00 99 1026.2
20260906040043 13 0.0 0.0 0.00 0.56 0.00 99 1026.1
20260906035043 13 0.0 0.0 0.00 0.56 0.00 99 1026.2
20260906034044 13 0.0 0.0 0.00 0.56 0.00 99 1026.2
20260906033045 13 84 0.0 3.2 0.00 0.56 0.00 99 1026.1
20260906032107 13 17 1.6 4.8 0.00 0.56 0.00 99 1026.1
20260906031045 13 0.0 1.6 0.00 0.56 0.00 99 1026.1
20260906030225 13 76 0.0 1.6 0.00 0.56 0.00 99 1025.9
20260906025048 13 81 0.0 1.6 0.00 0.56 0.00 99 1026.0
20260906024047 12 0.0 1.6 0.00 0.56 0.00 99 1026.0
20260906023107 12 0.0 1.6 0.00 0.56 0.00 99 1026.1
20260906022107 12 29 3.2 4.8 0.00 0.56 0.00 99 1026.0
20260906021048 12 68 1.6 3.2 0.00 0.56 0.00 99 1026.1
20260906020049 13 342 3.2 4.8 0.00 0.56 0.00 99 1026.0
20260906015049 13 333 3.2 4.8 0.00 0.56 0.00 99 1026.0
20260906014049 13 339 3.2 4.8 0.00 0.56 0.00 99 1025.9
20260906011053 14 325 4.8 8.0 0.00 0.56 0.00 96 1025.8
20260906010053 14 6 3.2 4.8 0.00 0.56 0.00 95 1025.9
20260906005054 15 22 6.4 11.3 0.00 0.56 0.00 95 1025.9
20260906004054 15 17 4.8 11.3 0.00 0.56 0.00 95 1025.7
20260906003055 15 15 3.2 4.8 0.00 0.56 0.00 91 1025.7
20260906002115 16 63 1.6 3.2 0.00 0.56 0.00 91 1025.6
20260906001056 16 135 1.6 1.6 0.00 0.56 0.00 91 1025.7
20260906000116 16 131 0.0 3.2 0.00 0.56 0.00 91 1025.7
20260905235057 15 128 0.0 1.6 0.00 0.56 0.00 92 1025.8
20260905234058 15 128 1.6 1.6 0.00 0.56 0.00 92 1025.8
20260905233058 15 136 0.0 1.6 0.00 0.56 0.00 92 1025.7
20260905232108 15 129 0.0 1.6 0.00 0.56 0.00 93 1025.8
20260905231058 15 152 1.6 3.2 0.00 0.56 0.00 96 1025.8
20260905230059 15 139 0.0 3.2 0.00 0.56 0.00 96 1025.7
20260905225059 15 0.0 0.0 0.00 0.56 0.00 96 1025.6
20260905224101 15 0.0 0.0 0.00 0.56 0.00 94 1025.5
20260905223101 15 0.0 0.0 0.00 0.56 0.00 93 1025.4
20260905222102 16 148 1.6 3.2 0.00 0.56 0.00 92 1025.5
20260905221121 16 191 1.6 4.8 0.00 0.56 0.00 91 1025.5
20260905215103 16 268 3.2 9.7 0.00 0.56 0.56 90 1025.3
20260905214103 16 80 1.6 3.2 0.00 0.56 0.56 91 1025.3
20260905213103 16 339 0.0 3.2 0.00 0.56 0.56 90 1025.3
20260905212104 16 47 1.6 4.8 0.00 0.56 0.56 90 1025.2
20260905211103 16 60 1.6 3.2 0.00 0.56 0.56 92 1025.1
20260905210104 16 63 1.6 4.8 0.00 0.56 0.56 92 1025.1
20260905205104 16 57 3.2 4.8 0.00 0.56 0.56 92 1025.0
20260905204125 16 72 1.6 4.8 0.00 0.56 0.56 91 1025.0
20260905203037 17 72 1.6 4.8 0.00 0.56 0.56 89 1024.9
20260905202038 17 59 1.6 4.8 0.00 0.56 0.56 86 1024.7
20260905201039 17 353 3.2 8.0 0.00 0.56 0.56 85 1024.7
20260905200038 18 296 4.8 9.7 0.00 0.56 0.56 84 1024.7
20260905195039 18 39 3.2 11.3 0.00 0.56 0.56 83 1024.5
20260905194040 18 264 6.4 17.7 0.00 0.56 0.56 82 1024.3
20260905193041 18 258 8.0 22.5 0.00 0.56 0.56 82 1024.2
20260905192040 18 256 6.4 17.7 0.00 0.56 0.56 83 1024.1
20260905191120 18 243 4.8 12.9 0.00 0.56 0.56 85 1023.9
20260905185042 19 187 4.8 12.9 0.00 0.56 0.56 85 1023.7
20260905184101 19 235 8.0 17.7 0.00 0.56 0.56 85 1023.6
20260905183042 19 219 8.0 16.1 0.00 0.56 0.56 86 1023.5
20260905182102 18 198 4.8 12.9 0.00 0.56 0.56 88 1023.3
20260905181043 18 185 4.8 11.3 0.00 0.56 0.56 89 1023.2
20260905180044 18 206 3.2 9.7 0.00 0.56 0.56 88 1023.1
20260905175044 19 216 3.2 11.3 0.00 0.56 0.56 87 1023.2
20260905174104 19 185 3.2 8.0 0.00 0.56 0.56 87 1023.1
20260905173045 19 202 3.2 8.0 0.00 0.56 0.56 86 1022.9
20260905172045 20 213 4.8 9.7 0.00 0.56 0.56 85 1022.9
20260905171114 20 206 3.2 9.7 0.00 0.56 0.56 83 1022.9
20260905170046 20 224 4.8 11.3 0.00 0.56 0.56 83 1022.9
20260905165046 20 191 4.8 12.9 0.00 0.56 0.56 82 1022.9
20260905164107 21 212 4.8 11.3 0.00 0.56 0.56 81 1022.9
20260905163047 21 210 3.2 11.3 0.00 0.56 0.56 79 1022.7
20260905162048 21 213 3.2 14.5 0.00 0.56 0.56 79 1022.8
20260905161048 21 228 8.0 17.7 0.00 0.56 0.56 79 1022.8
20260905160108 21 244 6.4 14.5 0.00 0.56 0.56 79 1022.8
20260905155049 21 278 4.8 12.9 0.00 0.56 0.56 78 1022.7
20260905154109 21 262 8.0 16.1 0.00 0.56 0.56 78 1022.8
20260905153104 21 259 6.4 14.5 0.00 0.56 0.56 78 1022.8
20260905152051 20 235 9.7 22.5 0.00 0.56 0.56 79 1022.9
20260905151050 21 216 6.4 14.5 0.00 0.56 0.56 76 1022.8
20260905150059 21 240 8.0 20.9 0.00 0.58 0.56 75 1022.9
20260905145051 20 242 9.7 22.5 0.00 0.58 0.56 75 1022.9
20260905144052 20 224 6.4 16.1 0.00 0.58 0.56 76 1022.9
20260905143052 20 251 8.0 17.7 0.00 0.58 0.56 77 1022.9
20260905142053 20 236 8.0 14.5 0.00 0.58 0.56 78 1022.9